sat.trackr.live / text

‹ back to catalog

STARLINK-31767

NORAD 59605 · 2024-080E

PAYLOAD ACTIVE UNKNOWN

§ Identity

Operator
Country
US
Launch date
2024-04-28
Launch site
AFETR
Launch vehicle
Mass (kg)
RCS (m²)

Purposes: comms

External: N2YO · Heavens-Above · Gunter

§ Orbital elements

Epoch: 2026-09-21T14:35:13.780032Z

Period
94.27 min
Inclination
43.0030°
Eccentricity
0.0001194
Mean motion
15.27556025 rev/d
Perigee alt
482.3 km
Apogee alt
483.9 km
Semi-major
6,861.3 km
B*
-2.6792e-5
RAAN
11.6545°
Arg perigee
282.5153°
Mean anomaly
77.5565°
Rev number
13,449

§ Raw data

STARLINK-317671 59605U 24080E   26264.60779838 -.00000999  00000+0 -26792-4 0  99952 59605  43.0030  11.6545 0001194 282.5153  77.5565 15.27556025134494

JSON: /api/v1/satellites/59605 · /tle

For live sub-satellite position, see the globe view (requires WebGL).

§ Visibility from observer

Set your observer location to see the next 7 days of passes ≥ 10°. The values pass through the URL so the page stays shareable.

No JS? Fill the form by hand. The geolocation button needs JavaScript.